La Grande, OR

7:59 PM PDT on October 18, 2019 (GMT -0700)
La Grande-Union County

Weather History for KLGD - August, 2019

Change the Weather History Date:

Wednesday, August 28, 2019

  Actual Average Record
Temperature  
Mean Temperature 70 °F -  
Max Temperature 97 °F 79 °F 102 °F (1986)
Min Temperature 43 °F 46 °F 32 °F (1980)
Cooling Degree Days 4    
Growing Degree Days 20 (Base 50)    
Moisture  
Dew Point 40 °F    
Average Humidity 39    
Maximum Humidity 80    
Minimum Humidity 12    
Precipitation  
Precipitation 0.00 in - - ()
Sea Level Pressure  
Sea Level Pressure 30.37 in    
Wind  
Wind Speed 3 mph (NW)    
Max Wind Speed 13 mph    
Max Gust Speed -    
Visibility 10 miles    
Events      
Averages and records for this station are not official NWS values.
T = Trace of Precipitation, MM = Missing Value Source: NWS Daily Summary

Daily Weather History Graph

Daily Weather History Graph

Search for Another Location

Airport or City:

Astronomy

Aug. 28, 2019 Rise Set
Actual Time 6:08 AM PDT 7:36 PM PDT
Civil Twilight 5:37 AM PDT 8:07 PM PDT
Nautical Twilight 5:00 AM PDT 8:44 PM PDT
Astronomical Twilight 4:20 AM PDT 9:24 PM PDT
Moon 3:37 AM PDT (8/28) 6:59 PM PDT (8/28)
Length of Visible Light 14h 29m
Length of Day
13h 28m
Waning Crescent, 4% of the Moon is Illuminated
Aug 28
Waning Crescent
Aug 30
New
Sep 5
First Quarter
Sep 13
Full
Sep 21
Last Quarter

Hourly Weather History & Observations

Time (PDT) Temp. Dew Point Humidity Pressure Visibility Wind Dir Wind Speed Gust Speed Precip Events Conditions
12:56 AM 55.0 °F 41.0 °F 59% 30.41 in 10.0 mi Calm Calm - N/A   Clear
1:56 AM 55.0 °F 41.0 °F 59% 30.41 in 10.0 mi Calm Calm - N/A   Clear
2:56 AM 50.0 °F 37.9 °F 63% 30.41 in 10.0 mi Calm Calm - N/A   Clear
3:56 AM 48.9 °F 39.0 °F 69% 30.41 in 10.0 mi Calm Calm - N/A   Clear
4:56 AM 46.0 °F 39.0 °F 76% 30.41 in 10.0 mi Calm Calm - N/A   Clear
5:56 AM 43.0 °F 37.0 °F 80% 30.41 in 10.0 mi Calm Calm - N/A   Clear
6:56 AM 48.0 °F 39.9 °F 74% 30.42 in 10.0 mi Calm Calm - N/A   Clear
7:56 AM 55.0 °F 41.0 °F 59% 30.42 in 10.0 mi Calm Calm - N/A   Clear
8:56 AM 60.1 °F 42.1 °F 51% 30.42 in 10.0 mi Variable 3.5 mph - N/A   Clear
9:56 AM 66.9 °F 42.1 °F 40% 30.41 in 10.0 mi NNE 4.6 mph - N/A   Clear
10:56 AM 73.9 °F 42.1 °F 32% 30.39 in 10.0 mi Variable 4.6 mph - N/A   Clear
11:56 AM 82.9 °F 43.0 °F 24% 30.37 in 10.0 mi Variable 4.6 mph - N/A   Clear
12:56 PM 90.0 °F 37.0 °F 15% 30.35 in 8.0 mi ESE 8.1 mph - N/A   Clear
1:56 PM 95.0 °F 37.0 °F 13% 30.33 in 10.0 mi SSE 10.4 mph - N/A   Clear
2:56 PM 95.0 °F 36.0 °F 13% 30.31 in 9.0 mi Calm Calm - N/A   Clear
3:56 PM 96.1 °F 36.0 °F 12% 30.30 in 10.0 mi Calm Calm - N/A   Clear
4:56 PM 95.0 °F 43.0 °F 17% 30.30 in 10.0 mi NW 12.7 mph - N/A   Clear
5:56 PM 93.0 °F 42.1 °F 17% 30.30 in 10.0 mi WNW 11.5 mph - N/A   Clear
6:56 PM 87.1 °F 44.1 °F 22% 30.30 in 5.0 mi NW 10.4 mph - N/A   Haze
7:56 PM 82.9 °F 42.1 °F 24% 30.32 in 10.0 mi West 5.8 mph - N/A   Clear
8:56 PM 81.0 °F 39.9 °F 23% 30.33 in 10.0 mi West 10.4 mph - N/A   Clear
9:56 PM 79.0 °F 39.9 °F 25% 30.35 in 10.0 mi NW 6.9 mph - N/A   Clear
10:56 PM 75.0 °F 41.0 °F 29% 30.35 in 10.0 mi NW 9.2 mph - N/A   Clear
11:56 PM 68.0 °F 43.0 °F 40% 30.35 in 10.0 mi Calm Calm - N/A   Clear